,,Stat5,,Stat1,,Stat2,,Stat3,,Stat4,,Wind1,,Wind1,
time,status,PA1M_AVG,status,PR1M_SUM,status,RH1M_AVG,status,SR1M_AVG,status,TA1M_AVG,status,W1dAve1m,status,W1sAve1m,
2002-06-15, 00:00:01,VALID,916.872,VALID,0,VALID,98.075,VALID,0.0339617,VALID,18.821,VALID,128,VALID,0.485938,
2002-06-15, 00:01:01,VALID,916.875,VALID,0,VALID,98.0674,VALID,0.0339617,VALID,18.8143,VALID,124,VALID,0.417101,
2002-06-15, 00:02:01,VALID,916.866,VALID,0,VALID,98.0801,VALID,0.0169808,VALID,18.8074,VALID,131,VALID,0.722886,
2002-06-15, 00:03:01,VALID,916.868,VALID,0,VALID,98.075,VALID,0.0169808,VALID,18.8178,VALID,138,VALID,0.543555,
2002-06-15, 00:04:01,VALID,916.864,VALID,0,VALID,98.0649,VALID,0,VALID,18.8114,VALID,131,VALID,0.480824,
2002-06-15, 00:05:00,VALID,916.833,VALID,0,VALID,98.0763,VALID,0,VALID,18.8114,VALID,127,VALID,0.463393,
2002-06-15, 00:06:00,VALID,916.822,VALID,0,VALID,98.0674,VALID,0,VALID,18.8183,VALID,137,VALID,0.781641,
2002-06-15, 00:07:00,VALID,916.806,VALID,0,VALID,98.0649,VALID,0,VALID,18.8183,VALID,129,VALID,0.637054,
2002-06-15, 00:08:00,VALID,916.775,VALID,0,VALID,98.0789,VALID,0.0169808,VALID,18.8148,VALID,128,VALID,0.491268,
2002-06-15, 00:09:00,VALID,916.75,VALID,0,VALID,98.0407,VALID,0.0169808,VALID,18.8342,VALID,122,VALID,0.64668,
2002-06-15, 00:10:00,VALID,916.722,VALID,0,VALID,97.9593,VALID,0.0169808,VALID,18.8407,VALID,118,VALID,0.707386,
2002-06-15, 00:11:00,VALID,916.699,VALID,0,VALID,97.9059,VALID,0.0169808,VALID,18.87,VALID,118,VALID,0.687946,
2002-06-15, 00:12:00,VALID,916.659,VALID,0,VALID,97.8195,VALID,0.0169808,VALID,18.8794,VALID,118,VALID,0.342694,
2002-06-15, 00:13:00,VALID,916.659,VALID,0,VALID,97.794,VALID,0.0169808,VALID,18.8891,VALID,117,VALID,0.415179,
2002-06-15, 00:14:00,VALID,916.646,VALID,0,VALID,97.7343,VALID,0.0339617,VALID,18.8956,VALID,105,VALID,0.352022,
2002-06-15, 00:15:00,VALID,916.633,VALID,0,VALID,97.7076,VALID,0,VALID,18.902,VALID,92,VALID,0.440234,
2002-06-15, 00:16:00,VALID,916.622,VALID,0,VALID,97.6402,VALID,0,VALID,18.9117,VALID,73,VALID,0.310369,
2002-06-15, 00:17:00,VALID,916.604,VALID,0,VALID,97.4685,VALID,0.0679233,VALID,18.8824,VALID,73,VALID,0.0700893,
2002-06-15, 00:18:00,VALID,916.594,VALID,0,VALID,97.3769,VALID,0.0849042,VALID,18.8561,VALID,73,VALID,0,
2002-06-15, 00:19:00,VALID,916.582,VALID,0,VALID,97.2981,VALID,0.0339617,VALID,18.8344,VALID,73,VALID,0,
2002-06-15, 00:20:00,VALID,916.583,VALID,0,VALID,97.2879,VALID,0.0169808,VALID,18.8017,VALID,73,VALID,0,
2002-06-15, 00:21:00,VALID,916.583,VALID,0,VALID,97.3782,VALID,0.0509425,VALID,18.789,VALID,73,VALID,0,
2002-06-15, 00:22:00,VALID,916.599,VALID,0,VALID,97.4812,VALID,0.0169808,VALID,18.7954,VALID,73,VALID,0,
2002-06-15, 00:23:00,VALID,916.589,VALID,0,VALID,97.5333,VALID,0.0169808,VALID,18.7721,VALID,73,VALID,0,
2002-06-15, 00:24:00,VALID,916.575,VALID,0,VALID,97.5626,VALID,0.0339617,VALID,18.7698,VALID,73,VALID,0,
2002-06-15, 00:25:00,VALID,916.577,VALID,0,VALID,97.5295,VALID,0.0169808,VALID,18.7435,VALID,73,VALID,0.0910714,
2002-06-15, 00:26:00,VALID,916.56,VALID,0,VALID,97.5397,VALID,0.0169808,VALID,18.7211,VALID,73,VALID,0.421415,
2002-06-15, 00:27:00,VALID,916.531,VALID,0,VALID,97.6274,VALID,0,VALID,18.6985,VALID,73,VALID,0.516016,
2002-06-15, 00:28:00,VALID,916.525,VALID,0,VALID,97.7927,VALID,0,VALID,18.7018,VALID,79,VALID,0.516809,
2002-06-15, 00:29:00,VALID,916.512,VALID,0,VALID,97.8792,VALID,-0.0169808,VALID,18.7048,VALID,86,VALID,0.416964,
2002-06-15, 00:30:00,VALID,916.51,VALID,0,VALID,97.9797,VALID,-0.0169808,VALID,18.705,VALID,88,VALID,0.527344,
2002-06-15, 00:31:00,VALID,916.491,VALID,0,VALID,98.0763,VALID,0.0169808,VALID,18.7145,VALID,89,VALID,0.433929,
2002-06-15, 00:32:00,VALID,916.47,VALID,0,VALID,98.1577,VALID,0,VALID,18.7311,VALID,89,VALID,0.36489,
2002-06-15, 00:33:00,VALID,916.449,VALID,0,VALID,98.1679,VALID,-0.0169808,VALID,18.7341,VALID,89,VALID,0.28457,
2002-06-15, 00:34:00,VALID,916.449,VALID,0,VALID,98.1297,VALID,0,VALID,18.7438,VALID,89,VALID,0.077178,
2002-06-15, 00:35:00,VALID,916.433,VALID,0,VALID,98.0267,VALID,-0.0169808,VALID,18.7306,VALID,89,VALID,0.0830357,
2002-06-15, 00:36:00,VALID,916.431,VALID,0,VALID,97.9504,VALID,0.0169808,VALID,18.7278,VALID,89,VALID,0.159961,
2002-06-15, 00:37:00,VALID,916.444,VALID,0,VALID,97.8792,VALID,0.0169808,VALID,18.702,VALID,89,VALID,0.09375,
2002-06-15, 00:38:00,VALID,916.45,VALID,0,VALID,97.883,VALID,0.0169808,VALID,18.6759,VALID,89,VALID,0,
2002-06-15, 00:39:00,VALID,916.469,VALID,0,VALID,97.9059,VALID,0.0169808,VALID,18.6759,VALID,89,VALID,0,
2002-06-15, 00:40:00,VALID,916.452,VALID,0,VALID,98.0331,VALID,0,VALID,18.6759,VALID,89,VALID,0,
2002-06-15, 00:41:00,VALID,916.462,VALID,0,VALID,98.103,VALID,0.0169808,VALID,18.6921,VALID,89,VALID,0,
2002-06-15, 00:42:00,VALID,916.47,VALID,0,VALID,98.1806,VALID,0,VALID,18.705,VALID,89,VALID,0,
2002-06-15, 00:43:00,VALID,916.46,VALID,0,VALID,98.1997,VALID,-0.0169808,VALID,18.7179,VALID,89,VALID,0.0245536,
2002-06-15, 00:44:00,VALID,916.475,VALID,0,VALID,98.2022,VALID,-0.0169808,VALID,18.741,VALID,89,VALID,0.39614,
2002-06-15, 00:45:00,VALID,916.466,VALID,0,VALID,98.206,VALID,-0.0169808,VALID,18.7542,VALID,90,VALID,0.133789,
2002-06-15, 00:46:00,VALID,916.463,VALID,0,VALID,98.2175,VALID,0,VALID,18.7569,VALID,128,VALID,0.427557,
2002-06-15, 00:47:00,VALID,916.465,VALID,0,VALID,98.206,VALID,0,VALID,18.7599,VALID,137,VALID,0.497768,
2002-06-15, 00:48:00,VALID,916.464,VALID,0,VALID,98.1971,VALID,-0.0169808,VALID,18.7468,VALID,141,VALID,0.324023,
2002-06-15, 00:49:00,VALID,916.466,VALID,0,VALID,98.276,VALID,-0.0169808,VALID,18.7572,VALID,141,VALID,0.686161,
2002-06-15, 00:50:00,VALID,916.457,VALID,0,VALID,98.2861,VALID,-0.0169808,VALID,18.7768,VALID,138,VALID,0.574449,
2002-06-15, 00:51:00,VALID,916.461,VALID,0,VALID,98.3103,VALID,0,VALID,18.7765,VALID,135,VALID,0.831055,
2002-06-15, 00:52:00,VALID,916.461,VALID,0,VALID,98.365,VALID,-0.0169808,VALID,18.7823,VALID,134,VALID,0.732955,
2002-06-15, 00:53:00,VALID,916.448,VALID,0,VALID,98.3701,VALID,0,VALID,18.792,VALID,122,VALID,0.516295,
2002-06-15, 00:54:00,VALID,916.445,VALID,0,VALID,98.3459,VALID,0,VALID,18.8021,VALID,109,VALID,0.641602,
2002-06-15, 00:55:00,VALID,916.434,VALID,0,VALID,98.3662,VALID,0,VALID,18.7892,VALID,125,VALID,0.607589,
2002-06-15, 00:56:00,VALID,916.428,VALID,0,VALID,98.4273,VALID,0,VALID,18.7984,VALID,128,VALID,0.689338,
2002-06-15, 00:57:00,VALID,916.414,VALID,0,VALID,98.4769,VALID,0,VALID,18.7989,VALID,138,VALID,0.687695,
2002-06-15, 00:58:00,VALID,916.405,VALID,0,VALID,98.5112,VALID,-0.0339617,VALID,18.822,VALID,147,VALID,0.536458,
2002-06-15, 00:59:00,VALID,916.398,VALID,0,VALID,98.5125,VALID,0,VALID,18.8086,VALID,148,VALID,0.549554,
2002-06-15, 01:00:00,VALID,916.381,VALID,0,VALID,98.5214,VALID,-0.0169808,VALID,18.8121,VALID,128,VALID,0.383594,
2002-06-15, 01:01:00,VALID,916.375,VALID,0,VALID,98.5494,VALID,0,VALID,18.7991,VALID,134,VALID,0.283482,
2002-06-15, 01:02:00,VALID,916.37,VALID,0,VALID,98.5837,VALID,-0.0169808,VALID,18.8021,VALID,158,VALID,0.371094,
2002-06-15, 01:03:00,VALID,916.346,VALID,0,VALID,98.6015,VALID,-0.0509425,VALID,18.7989,VALID,155,VALID,0.442969,
2002-06-15, 01:04:00,VALID,916.346,VALID,0,VALID,98.6078,VALID,-0.0339617,VALID,18.8155,VALID,149,VALID,0.487926,
2002-06-15, 01:05:00,VALID,916.358,VALID,0,VALID,98.6358,VALID,-0.0169808,VALID,18.8185,VALID,146,VALID,0.406473,
2002-06-15, 01:06:00,VALID,916.356,VALID,0,VALID,98.6384,VALID,-0.0339617,VALID,18.8247,VALID,145,VALID,0.30293,
2002-06-15, 01:07:00,VALID,916.341,VALID,0,VALID,98.6485,VALID,-0.0339617,VALID,18.8218,VALID,146,VALID,0.295312,
2002-06-15, 01:08:00,VALID,916.345,VALID,0,VALID,98.6625,VALID,-0.0339617,VALID,18.8178,VALID,146,VALID,0,
2002-06-15, 01:09:00,VALID,916.332,VALID,0,VALID,98.6396,VALID,-0.0169808,VALID,18.8121,VALID,145,VALID,0.0259766,
2002-06-15, 01:10:00,VALID,916.318,VALID,0,VALID,98.6117,VALID,-0.0169808,VALID,18.8084,VALID,141,VALID,0.187973,
2002-06-15, 01:11:00,VALID,916.294,VALID,0,VALID,98.5862,VALID,-0.0339617,VALID,18.7954,VALID,119,VALID,0.264732,
2002-06-15, 01:12:00,VALID,916.279,VALID,0,VALID,98.6028,VALID,0,VALID,18.789,VALID,112,VALID,0.400977,
2002-06-15, 01:13:00,VALID,916.258,VALID,0,VALID,98.5621,VALID,-0.0169808,VALID,18.7793,VALID,111,VALID,0.343973,
2002-06-15, 01:14:00,VALID,916.223,VALID,0,VALID,98.5633,VALID,0,VALID,18.7569,VALID,111,VALID,0.428309,
2002-06-15, 01:15:00,VALID,916.21,VALID,0,VALID,98.6536,VALID,0,VALID,18.7631,VALID,98,VALID,0.560938,
2002-06-15, 01:16:00,VALID,916.203,VALID,0,VALID,98.6511,VALID,0,VALID,18.7666,VALID,97,VALID,0.427083,
2002-06-15, 01:17:00,VALID,916.194,VALID,0,VALID,98.6524,VALID,-0.0339617,VALID,18.7604,VALID,92,VALID,0.39375,
2002-06-15, 01:18:00,VALID,916.192,VALID,0,VALID,98.7019,VALID,0,VALID,18.7698,VALID,91,VALID,0.364258,
2002-06-15, 01:19:00,VALID,916.174,VALID,0,VALID,98.7134,VALID,0,VALID,18.7791,VALID,91,VALID,0.316741,
2002-06-15, 01:20:00,VALID,916.185,VALID,0,VALID,98.6956,VALID,0,VALID,18.7659,VALID,91,VALID,0.163603,
2002-06-15, 01:21:00,VALID,916.177,VALID,0,VALID,98.6791,VALID,0,VALID,18.7599,VALID,92,VALID,0.0269531,
2002-06-15, 01:22:00,VALID,916.178,VALID,0,VALID,98.688,VALID,-0.0169808,VALID,18.7564,VALID,92,VALID,0,
2002-06-15, 01:23:00,VALID,916.174,VALID,0,VALID,98.7121,VALID,0,VALID,18.7438,VALID,93,VALID,0.175223,
2002-06-15, 01:24:00,VALID,916.157,VALID,0,VALID,98.7007,VALID,0,VALID,18.7505,VALID,99,VALID,0.433594,
2002-06-15, 01:25:00,VALID,916.147,VALID,0,VALID,98.8113,VALID,-0.0169808,VALID,18.7631,VALID,99,VALID,0.578125,
2002-06-15, 01:26:00,VALID,916.129,VALID,0,VALID,98.8139,VALID,-0.101885,VALID,18.7842,VALID,104,VALID,0.523438,
2002-06-15, 01:27:00,VALID,916.109,VALID,0,VALID,98.8113,VALID,-0.101885,VALID,18.7934,VALID,103,VALID,0.576172,
2002-06-15, 01:28:00,VALID,916.097,VALID,0,VALID,98.8316,VALID,-0.101885,VALID,18.8095,VALID,110,VALID,0.611979,
2002-06-15, 01:29:00,VALID,916.078,VALID,0,VALID,98.8227,VALID,-0.0679233,VALID,18.8322,VALID,111,VALID,0.66183,
2002-06-15, 01:30:00,VALID,916.077,VALID,0,VALID,98.7172,VALID,-0.0849042,VALID,18.8259,VALID,99,VALID,0.448047,
2002-06-15, 01:31:00,VALID,916.053,VALID,0,VALID,98.6231,VALID,-0.101885,VALID,18.7936,VALID,96,VALID,0.555357,
2002-06-15, 01:32:00,VALID,916.035,VALID,0,VALID,98.5481,VALID,-0.101885,VALID,18.771,VALID,91,VALID,0.5108,
2002-06-15, 01:33:00,VALID,916.005,VALID,0,VALID,98.4527,VALID,-0.101885,VALID,18.7159,VALID,87,VALID,0.53125,
2002-06-15, 01:34:00,VALID,915.985,VALID,0,VALID,98.5443,VALID,-0.0679233,VALID,18.7263,VALID,86,VALID,0.674716,
2002-06-15, 01:35:00,VALID,915.962,VALID,0,VALID,98.5837,VALID,-0.0679233,VALID,18.7293,VALID,84,VALID,0.689509,
2002-06-15, 01:36:00,VALID,915.944,VALID,0,VALID,98.5799,VALID,-0.101885,VALID,18.7129,VALID,77,VALID,0.690039,
2002-06-15, 01:37:00,VALID,915.939,VALID,0,VALID,98.6015,VALID,-0.101885,VALID,18.7325,VALID,75,VALID,0.530357,
2002-06-15, 01:38:00,VALID,915.948,VALID,0,VALID,98.6002,VALID,-0.0849042,VALID,18.732,VALID,78,VALID,0.735983,
2002-06-15, 01:39:00,VALID,915.937,VALID,0,VALID,98.6091,VALID,-0.101885,VALID,18.7352,VALID,81,VALID,0.674609,
2002-06-15, 01:40:00,VALID,915.946,VALID,0,VALID,98.6574,VALID,-0.0679233,VALID,18.738,VALID,81,VALID,0.677794,
2002-06-15, 01:41:00,VALID,915.949,VALID,0,VALID,98.7732,VALID,0,VALID,18.7696,VALID,82,VALID,0.597098,
2002-06-15, 01:42:00,VALID,915.947,VALID,0,VALID,98.7248,VALID,0.0509425,VALID,18.7917,VALID,82,VALID,0.121094,
2002-06-15, 01:43:00,VALID,915.935,VALID,0,VALID,98.6498,VALID,0,VALID,18.792,VALID,82,VALID,0,
2002-06-15, 01:44:00,VALID,915.923,VALID,0,VALID,98.529,VALID,0,VALID,18.7664,VALID,82,VALID,0,
2002-06-15, 01:45:00,VALID,915.917,VALID,0,VALID,98.4642,VALID,0,VALID,18.7373,VALID,82,VALID,0.164258,
2002-06-15, 01:46:00,VALID,915.913,VALID,0,VALID,98.501,VALID,0,VALID,18.7438,VALID,82,VALID,0,
2002-06-15, 01:47:00,VALID,915.882,VALID,0,VALID,98.5532,VALID,0,VALID,18.7793,VALID,82,VALID,0.000892857,
2002-06-15, 01:48:00,VALID,915.899,VALID,0,VALID,98.5405,VALID,0,VALID,18.792,VALID,82,VALID,0,
2002-06-15, 01:49:00,VALID,915.902,VALID,0,VALID,98.487,VALID,0.0169808,VALID,18.7987,VALID,82,VALID,0,
2002-06-15, 01:50:00,VALID,915.899,VALID,0,VALID,98.4286,VALID,0,VALID,18.7892,VALID,82,VALID,0,
2002-06-15, 01:51:00,VALID,915.915,VALID,0,VALID,98.384,VALID,0.0509425,VALID,18.7629,VALID,82,VALID,0,
2002-06-15, 01:52:00,VALID,915.927,VALID,0,VALID,98.2925,VALID,0,VALID,18.7537,VALID,82,VALID,0,
2002-06-15, 01:53:00,VALID,915.947,VALID,0,VALID,98.276,VALID,0,VALID,18.7408,VALID,82,VALID,0,
2002-06-15, 01:54:00,VALID,915.948,VALID,0,VALID,98.281,VALID,0,VALID,18.7341,VALID,82,VALID,0,
2002-06-15, 01:55:00,VALID,915.962,VALID,0,VALID,98.2213,VALID,0.0339617,VALID,18.7276,VALID,82,VALID,0,
2002-06-15, 01:56:00,VALID,915.949,VALID,0,VALID,98.1386,VALID,0,VALID,18.6953,VALID,82,VALID,0,
2002-06-15, 01:57:00,VALID,915.957,VALID,0,VALID,98.1246,VALID,0,VALID,18.6826,VALID,82,VALID,0,
2002-06-15, 01:58:00,VALID,915.952,VALID,0,VALID,98.0992,VALID,0,VALID,18.6595,VALID,82,VALID,0,
2002-06-15, 01:59:00,VALID,915.95,VALID,0,VALID,98.1106,VALID,0,VALID,18.6503,VALID,82,VALID,0,
2002-06-15, 02:00:00,VALID,915.94,VALID,0,VALID,98.042,VALID,0,VALID,18.6344,VALID,82,VALID,0.324414,
2002-06-15, 02:01:00,VALID,915.933,VALID,0,VALID,98.0102,VALID,0.0169808,VALID,18.5922,VALID,93,VALID,0.528795,
2002-06-15, 02:02:00,VALID,915.933,VALID,0,VALID,97.9873,VALID,0.0169808,VALID,18.5594,VALID,108,VALID,0.367417,
2002-06-15, 02:03:00,VALID,915.905,VALID,0,VALID,98.0369,VALID,0,VALID,18.5373,VALID,115,VALID,0.436914,
2002-06-15, 02:04:00,VALID,915.894,VALID,0,VALID,98.2124,VALID,0,VALID,18.5274,VALID,115,VALID,0.606061,
2002-06-15, 02:05:00,VALID,915.889,VALID,0,VALID,98.3217,VALID,0,VALID,18.5403,VALID,116,VALID,0.657143,
2002-06-15, 02:06:00,VALID,915.861,VALID,0,VALID,98.3408,VALID,0.0169808,VALID,18.5338,VALID,113,VALID,0.709375,
2002-06-15, 02:07:00,VALID,915.844,VALID,0,VALID,98.3764,VALID,0,VALID,18.5149,VALID,107,VALID,0.815402,
2002-06-15, 02:08:00,VALID,915.831,VALID,0,VALID,98.6117,VALID,0.0169808,VALID,18.547,VALID,121,VALID,0.838235,
2002-06-15, 02:09:00,VALID,915.804,VALID,0,VALID,98.5646,VALID,0,VALID,18.5532,VALID,124,VALID,0.566797,
2002-06-15, 02:10:00,VALID,915.801,VALID,0,VALID,98.5659,VALID,0,VALID,18.5627,VALID,133,VALID,0.314394,
2002-06-15, 02:11:00,VALID,915.793,VALID,0,VALID,98.5443,VALID,0.0169808,VALID,18.5497,VALID,118,VALID,0.472098,
2002-06-15, 02:12:00,VALID,915.789,VALID,0,VALID,98.6333,VALID,0.0169808,VALID,18.5634,VALID,113,VALID,0.771484,
2002-06-15, 02:13:00,VALID,915.794,VALID,0,VALID,98.7274,VALID,0.0339617,VALID,18.5823,VALID,120,VALID,1.02009,
2002-06-15, 02:14:00,VALID,915.788,VALID,0,VALID,98.7859,VALID,0,VALID,18.6081,VALID,117,VALID,0.998851,
2002-06-15, 02:15:00,VALID,915.804,VALID,0,VALID,98.8075,VALID,0,VALID,18.6372,VALID,113,VALID,1.04473,
2002-06-15, 02:16:00,VALID,915.802,VALID,0,VALID,98.8075,VALID,0.0509425,VALID,18.6568,VALID,118,VALID,1.05066,
2002-06-15, 02:17:00,VALID,915.793,VALID,0,VALID,98.7922,VALID,0,VALID,18.6533,VALID,116,VALID,0.703795,
2002-06-15, 02:18:00,VALID,915.793,VALID,0,VALID,98.7871,VALID,0,VALID,18.6538,VALID,107,VALID,0.981641,
2002-06-15, 02:19:00,VALID,915.795,VALID,0,VALID,98.7846,VALID,-0.0169808,VALID,18.6632,VALID,103,VALID,0.898884,
2002-06-15, 02:20:00,VALID,915.787,VALID,0,VALID,98.7719,VALID,0.0169808,VALID,18.6635,VALID,109,VALID,0.930377,
2002-06-15, 02:21:00,VALID,915.778,VALID,0,VALID,98.777,VALID,0.0339617,VALID,18.6496,VALID,108,VALID,0.961328,
2002-06-15, 02:22:00,VALID,915.756,VALID,0,VALID,98.8151,VALID,0.0169808,VALID,18.6628,VALID,112,VALID,1.00426,
2002-06-15, 02:23:00,VALID,915.758,VALID,0,VALID,98.8177,VALID,0,VALID,18.6729,VALID,117,VALID,1.13326,
2002-06-15, 02:24:00,VALID,915.745,VALID,0,VALID,98.8469,VALID,0.0169808,VALID,18.6889,VALID,118,VALID,1.19102,
2002-06-15, 02:25:00,VALID,915.738,VALID,0,VALID,98.8329,VALID,-0.0169808,VALID,18.7025,VALID,115,VALID,1.21317,
2002-06-15, 02:26:00,VALID,915.722,VALID,0,VALID,98.8685,VALID,-0.0509425,VALID,18.7189,VALID,112,VALID,1.37661,
2002-06-15, 02:27:00,VALID,915.724,VALID,0,VALID,98.796,VALID,-0.0679233,VALID,18.7385,VALID,118,VALID,1.26289,
2002-06-15, 02:28:00,VALID,915.691,VALID,0,VALID,98.7846,VALID,-0.0169808,VALID,18.7486,VALID,119,VALID,1.29356,
2002-06-15, 02:29:00,VALID,915.681,VALID,0,VALID,98.7185,VALID,-0.101885,VALID,18.7256,VALID,118,VALID,1.17321,
2002-06-15, 02:30:00,VALID,915.671,VALID,0,VALID,98.7414,VALID,-0.0849042,VALID,18.7355,VALID,117,VALID,1.09824,
2002-06-15, 02:31:00,VALID,915.675,VALID,0,VALID,98.6676,VALID,-0.0509425,VALID,18.739,VALID,115,VALID,1.02723,
2002-06-15, 02:32:00,VALID,915.657,VALID,0,VALID,98.6791,VALID,-0.0169808,VALID,18.7228,VALID,117,VALID,1.09926,
2002-06-15, 02:33:00,VALID,915.67,VALID,0,VALID,98.7134,VALID,-0.0169808,VALID,18.7161,VALID,113,VALID,0.972852,
2002-06-15, 02:34:00,VALID,915.643,VALID,0,VALID,98.6778,VALID,-0.0169808,VALID,18.7027,VALID,114,VALID,0.881866,
2002-06-15, 02:35:00,VALID,915.626,VALID,0,VALID,98.7185,VALID,-0.0509425,VALID,18.7034,VALID,108,VALID,0.940179,
2002-06-15, 02:36:00,VALID,915.623,VALID,0,VALID,98.7643,VALID,-0.0849042,VALID,18.7066,VALID,113,VALID,0.995313,
2002-06-15, 02:37:00,VALID,915.582,VALID,0,VALID,98.6867,VALID,-0.0509425,VALID,18.69,VALID,109,VALID,0.924554,
2002-06-15, 02:38:00,VALID,915.58,VALID,0,VALID,98.6295,VALID,0,VALID,18.6739,VALID,113,VALID,0.839154,
2002-06-15, 02:39:00,VALID,915.595,VALID,0,VALID,98.6155,VALID,-0.0509425,VALID,18.645,VALID,109,VALID,0.798437,
2002-06-15, 02:40:00,VALID,915.582,VALID,0,VALID,98.66,VALID,-0.0509425,VALID,18.6423,VALID,113,VALID,0.776515,
2002-06-15, 02:41:00,VALID,915.564,VALID,0,VALID,98.5811,VALID,-0.0679233,VALID,18.6194,VALID,119,VALID,0.890179,
2002-06-15, 02:42:00,VALID,915.569,VALID,0,VALID,98.5964,VALID,-0.0679233,VALID,18.5931,VALID,124,VALID,0.862305,
2002-06-15, 02:43:00,VALID,915.565,VALID,0,VALID,98.5621,VALID,-0.0509425,VALID,18.5901,VALID,124,VALID,0.870759,
2002-06-15, 02:44:00,VALID,915.562,VALID,0,VALID,98.6244,VALID,-0.0679233,VALID,18.5802,VALID,125,VALID,1.02137,
2002-06-15, 02:45:00,VALID,915.555,VALID,0,VALID,98.6625,VALID,-0.0339617,VALID,18.5869,VALID,134,VALID,0.916992,
2002-06-15, 02:46:00,VALID,915.56,VALID,0,VALID,98.7312,VALID,-0.0679233,VALID,18.5804,VALID,133,VALID,1.10748,
2002-06-15, 02:47:00,VALID,915.55,VALID,0,VALID,98.8622,VALID,-0.0339617,VALID,18.619,VALID,139,VALID,1.05268,
2002-06-15, 02:48:00,VALID,915.531,VALID,0,VALID,98.8189,VALID,-0.0849042,VALID,18.6257,VALID,131,VALID,0.800195,
2002-06-15, 02:49:00,VALID,915.546,VALID,0,VALID,98.8075,VALID,-0.101885,VALID,18.622,VALID,120,VALID,0.800893,
2002-06-15, 02:50:00,VALID,915.519,VALID,0,VALID,98.7973,VALID,-0.0679233,VALID,18.6227,VALID,129,VALID,0.819164,
2002-06-15, 02:51:00,VALID,915.5,VALID,0,VALID,98.8075,VALID,-0.0679233,VALID,18.6227,VALID,134,VALID,0.885156,
2002-06-15, 02:52:00,VALID,915.493,VALID,0,VALID,98.7935,VALID,-0.0849042,VALID,18.6162,VALID,118,VALID,0.860085,
2002-06-15, 02:53:00,VALID,915.468,VALID,0,VALID,98.7808,VALID,-0.0339617,VALID,18.6028,VALID,112,VALID,0.857366,
2002-06-15, 02:54:00,VALID,915.451,VALID,0,VALID,98.7414,VALID,-0.0679233,VALID,18.5966,VALID,119,VALID,0.915039,
2002-06-15, 02:55:00,VALID,915.448,VALID,0,VALID,98.7363,VALID,-0.0339617,VALID,18.5901,VALID,119,VALID,1.10982,
2002-06-15, 02:56:00,VALID,915.429,VALID,0,VALID,98.7414,VALID,0.0679233,VALID,18.5788,VALID,123,VALID,0.910846,
2002-06-15, 02:57:00,VALID,915.415,VALID,0,VALID,98.7134,VALID,0.0169808,VALID,18.5666,VALID,118,VALID,0.986523,
2002-06-15, 02:58:00,VALID,915.41,VALID,0,VALID,98.7185,VALID,0.0169808,VALID,18.5795,VALID,115,VALID,1.27486,
2002-06-15, 02:59:00,VALID,915.417,VALID,0,VALID,98.6956,VALID,0,VALID,18.5922,VALID,113,VALID,1.24911,
2002-06-15, 03:00:00,VALID,915.402,VALID,0,VALID,98.6104,VALID,0.0339617,VALID,18.6023,VALID,114,VALID,0.972852,
2002-06-15, 03:01:00,VALID,915.412,VALID,0,VALID,98.5036,VALID,0.0339617,VALID,18.5853,VALID,116,VALID,0.955134,
2002-06-15, 03:02:00,VALID,915.39,VALID,0,VALID,98.3917,VALID,0.0509425,VALID,18.5693,VALID,110,VALID,1.1489,
2002-06-15, 03:03:00,VALID,915.366,VALID,0,VALID,98.3103,VALID,0.0679233,VALID,18.5428,VALID,112,VALID,1.24004,
2002-06-15, 03:04:00,VALID,915.359,VALID,0,VALID,98.2658,VALID,0.0679233,VALID,18.5631,VALID,110,VALID,1.12524,
2002-06-15, 03:05:00,VALID,915.35,VALID,0,VALID,98.2442,VALID,0.0679233,VALID,18.5564,VALID,116,VALID,1.23839,
2002-06-15, 03:06:00,VALID,915.337,VALID,0,VALID,98.1488,VALID,0.0679233,VALID,18.5532,VALID,124,VALID,1.04629,
2002-06-15, 03:07:00,VALID,915.344,VALID,0,VALID,98.1463,VALID,0.0339617,VALID,18.5467,VALID,126,VALID,0.895089,
2002-06-15, 03:08:00,VALID,915.355,VALID,0,VALID,98.1386,VALID,0.0509425,VALID,18.5634,VALID,118,VALID,1.01057,
2002-06-15, 03:09:00,VALID,915.354,VALID,0,VALID,98.0954,VALID,0.0169808,VALID,18.5467,VALID,109,VALID,0.963281,
2002-06-15, 03:10:00,VALID,915.383,VALID,0,VALID,98.1246,VALID,-0.0339617,VALID,18.5511,VALID,115,VALID,1.16016,
2002-06-15, 03:11:00,VALID,915.383,VALID,0,VALID,98.1196,VALID,-0.0679233,VALID,18.5414,VALID,111,VALID,1.06272,
2002-06-15, 03:12:00,VALID,915.399,VALID,0,VALID,98.075,VALID,-0.0509425,VALID,18.5288,VALID,108,VALID,1.09336,
2002-06-15, 03:13:00,VALID,915.42,VALID,0,VALID,98.1094,VALID,-0.0509425,VALID,18.5225,VALID,104,VALID,1.28929,
2002-06-15, 03:14:00,VALID,915.413,VALID,0,VALID,98.103,VALID,-0.0849042,VALID,18.5126,VALID,109,VALID,1.22151,
2002-06-15, 03:15:00,VALID,915.411,VALID,0,VALID,98.0776,VALID,-0.0509425,VALID,18.4999,VALID,112,VALID,1.25742,
2002-06-15, 03:16:00,VALID,915.436,VALID,0,VALID,98.089,VALID,-0.0509425,VALID,18.4706,VALID,117,VALID,1.13352,
2002-06-15, 03:17:00,VALID,915.435,VALID,0,VALID,98.1412,VALID,-0.0339617,VALID,18.4542,VALID,117,VALID,1.11473,
2002-06-15, 03:18:00,VALID,915.429,VALID,0,VALID,98.1895,VALID,-0.0339617,VALID,18.4415,VALID,128,VALID,0.806445,
2002-06-15, 03:19:00,VALID,915.451,VALID,0,VALID,98.1819,VALID,-0.0509425,VALID,18.4256,VALID,128,VALID,0.654241,
2002-06-15, 03:20:00,VALID,915.426,VALID,0,VALID,98.2264,VALID,-0.0169808,VALID,18.4093,VALID,128,VALID,0.874311,
2002-06-15, 03:21:00,VALID,915.413,VALID,0,VALID,98.2327,VALID,-0.0339617,VALID,18.3933,VALID,133,VALID,0.820117,
2002-06-15, 03:22:00,VALID,915.407,VALID,0,VALID,98.3205,VALID,-0.0339617,VALID,18.3673,VALID,115,VALID,0.903172,
2002-06-15, 03:23:00,VALID,915.416,VALID,0,VALID,98.379,VALID,-0.0849042,VALID,18.3737,VALID,112,VALID,0.849777,
2002-06-15, 03:24:00,VALID,915.417,VALID,0,VALID,98.426,VALID,-0.0849042,VALID,18.4003,VALID,122,VALID,1.11953,
2002-06-15, 03:25:00,VALID,915.406,VALID,0,VALID,98.4959,VALID,-0.0339617,VALID,18.4252,VALID,119,VALID,0.997545,
2002-06-15, 03:26:00,VALID,915.42,VALID,0,VALID,98.3662,VALID,-0.0169808,VALID,18.4439,VALID,117,VALID,0.890625,
2002-06-15, 03:27:00,VALID,915.417,VALID,0,VALID,98.3675,VALID,0,VALID,18.4607,VALID,122,VALID,1.04863,
2002-06-15, 03:28:00,VALID,915.426,VALID,0,VALID,98.3713,VALID,0,VALID,18.487,VALID,128,VALID,1.32102,
2002-06-15, 03:29:00,VALID,915.419,VALID,0,VALID,98.2861,VALID,-0.0339617,VALID,18.5091,VALID,136,VALID,0.954241,
2002-06-15, 03:30:00,VALID,915.437,VALID,0,VALID,98.1196,VALID,-0.0169808,VALID,18.5091,VALID,129,VALID,1.20156,
2002-06-15, 03:31:00,VALID,915.422,VALID,0,VALID,98.0598,VALID,-0.0169808,VALID,18.5191,VALID,127,VALID,1.16987,
2002-06-15, 03:32:00,VALID,915.427,VALID,0,VALID,97.9771,VALID,-0.0169808,VALID,18.5288,VALID,121,VALID,0.913373,
2002-06-15, 03:33:00,VALID,915.421,VALID,0,VALID,97.8779,VALID,-0.0339617,VALID,18.532,VALID,119,VALID,1.1334,
2002-06-15, 03:34:00,VALID,915.395,VALID,0,VALID,97.794,VALID,0,VALID,18.5417,VALID,131,VALID,1.2133,
2002-06-15, 03:35:00,VALID,915.383,VALID,0,VALID,97.7126,VALID,-0.0339617,VALID,18.5444,VALID,124,VALID,1.13482,